Flag for U.S.A. Weather past 2 weeks in San Luis Obispo, California, U.S.A.

Now
64 °F

Sunny.


Feels Like: 64 °F
Forecast: 45 / 69 °F
Wind: 18 mph from Northwest

Location: San Luis Obispo County-Mc Chesney Field

Current Time: Jan 30, 2015 at 3:33:45 PM

Latest Report: Jan 30, 2015 at 2:56 PM


Visibility: 10 mi

Pressure: 29.86 "Hg

Humidity: 68%

Dew point: 53 °F

Location of San Luis ObispoLocation

Historic Weather in San Luis Obispo — Graph

°F

San Luis Obispo temperature yesterday

Maximum temperature yesterday: 74 °F (at 12:56 PM)
Minimum temperature yesterday: 44 °F (at 6:56 AM)
Average temperature yesterday: 55 °F

Past Weeks' High & Low Weather Summary

 TemperatureHumidityPressure
High84 °F (Jan 25, 1:56 PM)97% (Jan 18, 9:56 PM)30.28 "Hg (Jan 18, 9:56 PM)
Low36 °F (Jan 23, 4:56 AM)15% (Jan 25, 1:56 PM)29.86 "Hg (Jan 30, 1:56 PM)
Average56 °F65%30.12 "Hg
* Reported Jan 15 1:56 PM — Jan 30 1:56 PM, San Luis Obispo, Weather by CustomWeather, © 2014

Note: Actual official high and low records may vary slightly from our data, if they occured in-between our weather recording intervals... More about our weather records

Advertising

San Luis Obispo weather history for previous 24 hours

 ConditionsComfort  
Time TempWeatherWind HumidityBarometerVisibility
1:56 PM
Jan 30
65 °FSunny.21 mph68%29.86 "Hg10 mi
12:56 PM69 °FSunny.16 mph55%29.88 "Hg10 mi
11:56 AM69 °FSunny.13 mph42%29.92 "Hg10 mi
10:56 AM64 °FSunny.3 mph56%29.96 "Hg10 mi
9:56 AM56 °FSunny.No wind72%29.98 "Hg10 mi
8:56 AM50 °FSunny.No wind86%29.98 "Hg9 mi
7:56 AM42 °FSunny.No wind92%29.98 "Hg7 mi
6:56 AM41 °FClear.No wind93%29.98 "Hg10 mi
5:56 AM41 °FClear.N/A93%29.98 "Hg10 mi
4:56 AM43 °FClear.N/A89%29.98 "Hg10 mi
3:56 AM44 °FClear.5 mph93%29.97 "Hg10 mi
2:56 AM43 °FClear.3 mph93%29.98 "Hg10 mi
1:56 AM44 °FClear.3 mph89%29.99 "Hg10 mi
12:56 AM46 °FClear.No wind89%30.00 "Hg10 mi
11:56 PM
Jan 29
47 °FClear.No wind90%30.02 "Hg10 mi
10:56 PM47 °FClear.No wind90%30.03 "Hg10 mi
9:56 PM50 °FClear.No wind83%30.03 "Hg10 mi
8:56 PM50 °FClear.5 mph83%30.04 "Hg10 mi
7:56 PM53 °FClear.No wind80%30.03 "Hg10 mi
6:56 PM58 °FClear.No wind70%30.01 "Hg10 mi
5:56 PM60 °FClear.7 mph62%30.00 "Hg10 mi
4:56 PM63 °FScattered clouds.13 mph60%29.99 "Hg10 mi
3:56 PM66 °FSunny.14 mph56%29.98 "Hg10 mi
Weather by CustomWeather, © 2014

See weather overviewHow to use our weather pages